www.pogodaiklimat.ru

Погода и климат >> Архив погоды >> Финляндия >> Кокар Богскар


ПОГОДА в Кокар Богскар

  • Прогноз погоды в Кокар Богскар
  • Монитор погоды в Кокар Богскар

АРХИВ ПОГОДЫ в Кокар Богскар

Время (UTC), дата Ветер
(напр.,м/с)
 
Видим.   Явления Облачность Т
(С)
Тd
(С)
f
(%)
Тe
(С)
Тes
(С)
Комфортность P
(гПа)
Po
(гПа)
Тmin
(С)
Tmax
(С)
R
(мм)
R24
(мм)
S
(см)
22 12.09 ЮЗ 12 н/о н/о +15.5 +11.8 79 +13 +13 1011.8 1009.9
23 12.09 ЮЗ 13 н/о н/о +15.2 +12.0 81 +12 +12 1011.4 1009.5
00 13.09 ЮЗ 12-15
{17}
н/о н/о +15.0 +12.0 82 +12 +12 1011.3 1009.4
01 13.09 ЮЗ 12 н/о н/о +14.8 +12.1 84 +12 +12 1011.0 1009.1
02 13.09 ЮЗ 11-15
{15}
н/о н/о +14.5 +11.9 84 +12 +12 1010.6 1008.7
03 13.09 ЮЗ 11-15
{15}
н/о н/о +14.3 +12.3 88 +11 +11 1010.4 1008.5
04 13.09 ЮЗ 10 н/о н/о +14.0 +12.5 91 +11 +11 1010.2 1008.3
05 13.09 ЮЗ 11 н/о н/о +13.9 +12.3 90 +11 +11 1009.9 1008.0
06 13.09 З 10-13
{13}
н/о н/о +14.0 +11.8 87 +11 +11 1010.1 1008.2 +13.8 +16.2
07 13.09 З 9-11
{13}
н/о н/о +13.8 +11.6 87 +11 +11 1010.0 1008.1
08 13.09 З 9-12
{12}
н/о н/о +13.8 +12.0 89 +11 +11 1010.0 1008.1
09 13.09 З 7-10
{12}
н/о н/о +13.8 +11.6 87 +11 +11 1010.1 1008.2
10 13.09 З 4 н/о н/о +14.0 +11.2 83 +13 +13 1010.2 1008.3
12 13.09 С 17-20
{21}
н/о н/о +11.7 +8.6 81 +7 +7 1011.9 1009.9
13 13.09 С 8 н/о н/о +12.8 +7.3 69 +10 +10 1012.5 1010.6
14 13.09 СЗ 8 н/о н/о +13.0 +7.0 67 +10 +10 1013.0 1011.1
15 13.09 СЗ 7-10
{11}
н/о н/о +13.6 +7.4 66 +11 +11 1014.0 1012.1
16 13.09 СЗ 6 н/о н/о +13.2 +8.7 74 +11 +11 1014.3 1012.4
17 13.09 З 4 н/о н/о +13.3 +8.4 72 +12 +12 1014.8 1012.9
18 13.09 З 3-5
{8}
н/о н/о +13.7 +8.7 72 +13 +13 1015.9 1013.9 +13.8 +16.2
19 13.09 З 5-8
{8}
н/о н/о +14.4 +9.5 72 +13 +13 1015.6 1013.7
20 13.09 З 7-11
{14}
н/о н/о +14.6 +9.5 71 +13 +13 1015.6 1013.7
21 13.09 З 6-11
{12}
н/о н/о +14.6 +7.3 62 +13 +13 1016.0 1014.1
22 13.09 З 6 н/о н/о +14.3 +7.5 64 +12 +12 1016.3 1014.4
23 13.09 З 7 н/о н/о +13.9 +6.8 62 +12 +12 1016.5 1014.6
00 14.09 З 6-10
{11}
н/о н/о +13.5 +6.7 63 +11 +11 1016.8 1014.9
01 14.09 З 7 н/о н/о +13.2 +7.2 67 +11 +11 1017.1 1015.1
02 14.09 З 6 н/о н/о +12.7 +7.2 69 +10 +10 1017.2 1015.2
03 14.09 З 5-8
{9}
н/о н/о +12.1 +7.6 74 +10 +10 1017.3 1015.4
04 14.09 З 5 н/о н/о +11.8 +7.3 74 +9 +9 1017.6 1015.6
05 14.09 З 6-10
{10}
н/о н/о +11.6 +6.1 69 +9 +9 1017.8 1015.9
06 14.09 СЗ 7-9
{10}
н/о н/о +11.1 +6.9 75 +8 +8 1018.1 1016.1 +11.0 +14.9
07 14.09 СЗ 7-9
{10}
н/о н/о +10.9 +6.7 75 +8 +8 1018.5 1016.5
08 14.09 СЗ 7-9
{10}
н/о н/о +11.1 +7.4 78 +8 +8 1019.1 1017.2
09 14.09 СЗ 7-11
{11}
н/о н/о +12.1 +5.7 65 +9 +9 1019.7 1017.7
10 14.09 СЗ 6 н/о н/о +12.2 +3.1 54 +10 +10 1019.6 1017.7
11 14.09 З 6 н/о н/о +12.1 +4.6 60 +10 +10 1019.7 1017.7
12 14.09 З 6-10
{11}
н/о н/о +12.7 +5.2 60 +10 +10 1020.0 1018.1
13 14.09 З 7-10
{10}
н/о н/о +13.0 +4.2 55 +11 +11 1019.8 1017.9
14 14.09 З 9 н/о н/о +13.6 +4.4 54 +11 +11 1019.2 1017.2
15 14.09 ЮЗ 8-11
{12}
н/о н/о +14.0 +5.0 55 +12 +12 1018.7 1016.8
16 14.09 ЮЗ 9 н/о н/о +14.2 +5.4 55 +12 +12 1018.1 1016.2
17 14.09 З 7-10
{12}
н/о н/о +14.4 +4.5 51 +12 +12 1017.4 1015.5
18 14.09 З 7-9
{12}
н/о н/о +14.3 +6.2 58 +12 +12 1017.1 1015.2 +10.9 +14.4
19 14.09 ЮЗ 7 н/о н/о +14.0 +8.2 68 +12 +12 1016.8 1014.8
20 14.09 ЮЗ 8-10
{10}
н/о н/о +14.4 +6.4 59 +12 +12 1015.8 1013.9
21 14.09 ЮЗ 10-12
{12}
н/о н/о +14.5 +7.3 62 +12 +12 1014.4 1012.5
22 14.09 ЮЗ 12 н/о н/о +13.6 +8.4 71 +10 +10 1013.1 1011.2
23 14.09 ЮЗ 12 н/о н/о +12.6 +9.6 82 +9 +9 1012.0 1010.1
00 15.09 ЮЗ 13-16
{17}
н/о н/о +13.2 +9.3 77 +10 +10 1010.5 1008.5
01 15.09 ЮЗ 16-21
{21}
н/о н/о +12.6 +8.8 78 +8 +8 1008.6 1006.7
02 15.09 ЮЗ 18 н/о н/о +12.4 +10.4 88 +8 +8 1006.5 1004.6
03 15.09 ЮЗ 19-23
{25}
н/о н/о +11.7 +10.0 89 +7 +7 1003.6 1001.7
04 15.09 ЮЗ 20-25
{25}
н/о н/о +11.3 +10.2 93 +6 +6 1001.2 999.3
05 15.09 ЮЗ 20-26
{27}
н/о н/о +12.7 +9.8 83 +8 +8 999.3 997.4
06 15.09 ЮЗ 19-26
{26}
н/о н/о +12.8 +9.3 79 +8 +8 997.2 995.3 +11.3 +14.6
07 15.09 ЮЗ 20-23
{25}
н/о н/о +12.8 +9.8 82 +8 +8 996.6 994.7
08 15.09 ЮЗ 17 н/о н/о +12.6 +10.2 85 +8 +8 995.2 993.4
09 15.09 ЮЗ 17-23
{23}
н/о н/о +12.5 +10.5 88 +8 +8 992.9 991.0
10 15.09 ЮЗ 17 н/о н/о +12.5 +10.9 90 +8 +8 992.4 990.5
11 15.09 З 11 н/о н/о +12.3 +7.8 74 +9 +9 992.8 990.9
12 15.09 З 10-14
{17}
н/о н/о +13.6 +8.5 71 +11 +11 992.7 990.9
13 15.09 З 7-11
{13}
н/о н/о +13.5 +9.0 74 +11 +11 993.0 991.2
14 15.09 З 7-10
{14}
н/о н/о +13.8 +7.6 66 +12 +12 992.9 991.0
15 15.09 З 7-11
{12}
н/о н/о +14.0 +6.9 62 +12 +12 993.0 991.1
16 15.09 З 6 н/о н/о +14.0 +7.1 63 +12 +12 993.1 991.2
17 15.09 З 7-9
{12}
н/о н/о +13.7 +7.9 68 +11 +11 993.3 991.4
18 15.09 З 9-11
{11}
н/о н/о +13.5 +7.9 69 +11 +11 993.3 991.4 +10.5 +14.2
19 15.09 З 10 н/о н/о +13.6 +7.1 65 +11 +11 993.1 991.2
20 15.09 З 10 н/о н/о +13.2 +7.7 69 +10 +10 993.0 991.1
21 15.09 ЮЗ 10-13
{13}
н/о н/о +13.0 +7.9 71 +10 +10 992.6 990.7
22 15.09 ЮЗ 10-13
{13}
н/о н/о +12.7 +8.2 74 +9 +9 992.3 990.4
23 15.09 З 10 н/о н/о +12.8 +8.7 76 +10 +10 992.0 990.2
00 16.09 З 10-14
{14}
н/о н/о +12.8 +8.7 76 +10 +10 992.1 990.2
01 16.09 З 7-11
{13}
н/о н/о +12.8 +7.9 72 +10 +10 992.5 990.6
02 16.09 З 6 н/о н/о +12.6 +7.3 70 +10 +10 992.7 990.8
03 16.09 З 7-12
{14}
н/о н/о +12.2 +6.9 70 +9 +9 993.1 991.2
04 16.09 З 8 н/о н/о +11.8 +6.9 72 +9 +9 993.3 991.4
05 16.09 СЗ 9 н/о н/о +11.4 +6.4 71 +8 +8 993.6 991.7
06 16.09 З 9-13
{15}
н/о н/о +11.4 +6.5 72 +8 +8 994.1 992.2 +11.3 +13.6
07 16.09 З 9 н/о н/о +11.1 +6.9 75 +7 +7 994.7 992.8
08 16.09 СЗ 8-15
{15}
н/о н/о +11.4 +6.6 72 +8 +8 995.2 993.3
09 16.09 СЗ 8-13
{14}
н/о н/о +11.5 +7.2 75 +8 +8 995.8 993.9
10 16.09 СЗ 8-12
{13}
н/о н/о +11.6 +7.5 76 +8 +8 996.8 994.9
11 16.09 З 8 н/о н/о +11.4 +7.6 77 +8 +8 997.5 995.5
12 16.09 СЗ 8-13
{13}
н/о н/о +11.0 +7.2 77 +7 +7 998.1 996.2
13 16.09 СЗ 8 н/о н/о +9.2 +6.7 84 +5 +5 998.8 996.9
14 16.09 СЗ 9 н/о н/о +10.8 +7.4 80 +7 +7 998.9 997.0
15 16.09 СЗ 8-12
{14}
н/о н/о +11.1 +7.9 81 +8 +8 999.1 997.2
16 16.09 СЗ 7 н/о н/о +11.6 +6.2 69 +9 +9 999.4 997.5
17 16.09 СЗ 7 н/о н/о +11.6 +6.9 73 +9 +9 999.8 997.9
18 16.09 З 7-9
{11}
н/о н/о +11.1 +7.0 76 +8 +8 1000.0 998.1 +9.0 +11.7
19 16.09 З 7-9
{9}
н/о н/о +10.8 +8.1 83 +7 +7 1000.0 998.0
20 16.09 З 6-8
{11}
н/о н/о +10.6 +7.9 83 +7 +7 1000.1 998.2
21 16.09 СЗ 8-11
{12}
н/о н/о +10.4 +8.2 86 +6 +6 1000.1 998.1
22 16.09 СЗ 7 н/о н/о +10.2 +8.1 87 +6 +6 999.8 997.8
23 16.09 СЗ 7-12
{12}
н/о н/о +10.2 +8.0 86 +6 +6 999.5 997.5
00 17.09 СЗ 8-11
{13}
н/о н/о +9.9 +7.9 87 +6 +6 999.5 997.6
01 17.09 СЗ 3-6
{13}
н/о н/о +9.9 +7.8 87 +8 +8 999.5 997.6
02 17.09 СЗ 6-9
{11}
н/о н/о +10.6 +5.8 72 +7 +7 999.1 997.1
03 17.09 СЗ 6 н/о н/о +9.7 +7.6 87 +6 +6 999.1 997.2
04 17.09 СЗ 4 н/о н/о +10.4 +7.4 82 +8 +8 998.8 996.8
05 17.09 СЗ 6 н/о н/о +10.6 +6.2 74 +7 +7 998.5 996.6
06 17.09 З 5-6
{7}
н/о н/о +10.7 +6.3 74 +8 +8 998.2 996.3 +8.7 +11.1
07 17.09 СЗ 4-6
{7}
н/о н/о +10.7 +5.9 72 +8 +8 998.2 996.3
08 17.09 СЗ 4-6
{7}
н/о н/о +10.7 +6.9 77 +8 +8 998.2 996.3
09 17.09 СЗ 3-5
{6}
н/о н/о +10.7 +6.4 75 +9 +9 998.1 996.2
10 17.09 СЗ 4-6
{6}
н/о н/о +10.8 +5.8 71 +8 +8 998.0 996.1
11 17.09 СЗ 4 н/о н/о +11.0 +4.0 62 +9 +9 997.9 996.0
12 17.09 С 9-11
{11}
н/о н/о +10.5 +5.6 72 +7 +7 998.2 996.3
13 17.09 С 6 н/о н/о +10.3 +6.8 79 +7 +7 998.0 996.1
14 17.09 С 6 н/о н/о +9.5 +6.0 79 +6 +6 998.2 996.3
15 17.09 С 4-5
{5}
н/о н/о +10.0 +6.2 77 +7 +7 998.1 996.2
16 17.09 С 6 н/о н/о +10.3 +6.6 78 +7 +7 998.3 996.4
17 17.09 СВ 7-9
{12}
н/о н/о +10.2 +7.5 83 +7 +7 998.6 996.7
18 17.09 С 10-11
{11}
н/о н/о +10.7 +6.9 77 +7 +7 999.3 997.4 +9.1 +11.1
19 17.09 С 9 н/о н/о +10.9 +6.6 75 +7 +7 999.6 997.7
20 17.09 С 8 н/о н/о +11.1 +6.2 72 +8 +8 1000.1 998.2
21 17.09 С 11-13
{14}
н/о н/о +10.0 +5.2 72 +5 +5 1000.6 998.7
22 17.09 С 5 н/о н/о +10.8 +6.1 73 +8 +8 1000.7 998.8
23 17.09 С 9 н/о н/о +10.8 +6.0 72 +7 +7 1000.9 999.0
00 18.09 С 9-11
{11}
н/о н/о +10.1 +5.9 75 +6 +6 1001.2 999.3
01 18.09 С 8-10
{11}
н/о н/о +10.3 +7.4 82 +6 +6 1001.2 999.3
02 18.09 С 8-10
{12}
н/о н/о +10.6 +7.6 82 +7 +7 1001.7 999.8
03 18.09 С 12-14
{14}
н/о н/о +10.6 +6.9 78 +6 +6 1002.2 1000.3
04 18.09 С 11 н/о н/о +10.6 +7.6 82 +6 +6 1002.5 1000.6
05 18.09 С 11-12
{13}
н/о н/о +10.7 +6.9 77 +6 +6 1003.4 1001.5
06 18.09 С 10-11
{14}
н/о н/о +10.1 +6.5 78 +6 +6 1004.2 1002.3 +9.5 +11.2
07 18.09 С 9-11
{11}
н/о н/о +10.6 +5.4 70 +7 +7 1004.9 1003.0
08 18.09 С 7-8
{10}
н/о н/о +10.6 +6.0 73 +7 +7 1005.7 1003.8
09 18.09 С 7-8
{8}
н/о н/о +10.5 +6.7 77 +7 +7 1006.7 1004.7
10 18.09 С 7 н/о н/о +10.5 +6.3 75 +7 +7 1007.3 1005.3
11 18.09 С 6-8
{9}
н/о н/о +10.7 +4.6 66 +8 +8 1008.1 1006.1
12 18.09 С 9-10
{10}
н/о н/о +11.2 +3.8 60 +8 +8 1008.9 1007.0
13 18.09 С 8 н/о н/о +11.4 +4.4 62 +8 +8 1009.2 1007.3
14 18.09 С 6-9
{9}
н/о н/о +11.6 +3.8 59 +9 +9 1009.7 1007.8
15 18.09 С 10-13
{13}
н/о н/о +10.9 +7.3 78 +7 +7 1010.3 1008.3
16 18.09 С 9 н/о н/о +10.7 +5.0 68 +7 +7 1010.8 1008.8
17 18.09 С 9 н/о н/о +10.5 +6.4 76 +7 +7 1011.2 1009.3
18 18.09 С 8-10
{10}
н/о н/о +10.3 +6.0 75 +6 +6 1012.0 1010.0 +10.1 +11.6
19 18.09 С 7 н/о н/о +10.7 +6.4 75 +7 +7 1012.4 1010.5
20 18.09 С 7-7
{13}
н/о н/о +9.1 +5.7 79 +5 +5 1013.0 1011.0
21 18.09 С 5-7
{7}
н/о н/о +9.9 +6.1 77 +7 +7 1013.1 1011.2
22 18.09 С 5-6
{7}
н/о н/о +10.0 +5.5 74 +7 +7 1013.2 1011.2
23 18.09 СЗ 4 н/о н/о +10.4 +5.3 71 +8 +8 1013.2 1011.3
00 19.09 СЗ 6-8
{8}
н/о н/о +10.1 +4.9 70 +7 +7 1013.5 1011.5
01 19.09 СЗ 6 н/о н/о +10.4 +5.0 69 +7 +7 1013.6 1011.6
02 19.09 СЗ 5-8
{9}
н/о н/о +9.2 +4.5 72 +6 +6 1013.9 1011.9
03 19.09 СЗ 5-7
{9}
н/о н/о +8.6 +5.1 79 +5 +5 1013.8 1011.9
04 19.09 СЗ 4 н/о н/о +9.4 +4.3 70 +7 +7 1013.7 1011.7
05 19.09 СЗ 7 н/о н/о +9.4 +4.2 70 +6 +6 1013.8 1011.8
06 19.09 З 4-6
{9}
н/о н/о +8.7 +5.6 81 +6 +6 1014.2 1012.3 +8.2 +10.7
07 19.09 СЗ 9-17
{17}
н/о н/о +8.5 +6.5 87 +4 +4 1014.8 1012.8
08 19.09 С 14-15
{18}
н/о н/о +8.2 +4.6 78 +2 +2 1015.6 1013.7
09 19.09 -11
{14}
н/о н/о +9.0 +4.2 72 1016.5 1014.5
10 19.09 С 11 н/о н/о +9.5 +4.3 70 +5 +5 1016.7 1014.8
11 19.09 С 11 н/о н/о +9.5 +4.3 70 +5 +5 1017.3 1015.3
12 19.09 СЗ 6-12
{12}
н/о н/о +9.6 +4.4 70 +6 +6 1017.6 1015.6
13 19.09 С 11 н/о н/о +9.8 +2.3 60 +5 +5 1018.0 1016.0
14 19.09 СЗ 11 н/о н/о +9.2 +2.6 63 +4 +4 1018.3 1016.3
15 19.09 С 11-13
{16}
н/о н/о +9.0 +2.8 65 +4 +4 1018.9 1017.0
16 19.09 С 14 н/о н/о +8.3 +2.6 67 +3 +3 1019.3 1017.3
17 19.09 С 13 н/о н/о +9.0 +2.5 64 +4 +4 1019.6 1017.6
18 19.09 С 10-13
{15}
н/о н/о +9.1 +2.1 62 +5 +5 1019.9 1017.9 +7.9 +10.1
19 19.09 С 10 н/о н/о +9.3 +1.7 59 +5 +5 1020.0 1018.1
20 19.09 С 6-9
{11}
н/о н/о +8.9 +2.6 65 +5 +5 1020.1 1018.1
21 19.09 С 5-6
{8}
н/о н/о +9.5 +2.8 63 +7 +7 1020.4 1018.5
22 19.09 С 4 н/о н/о +9.7 +1.8 58 +7 +7 1020.6 1018.6
23 19.09 СЗ 4-6
{8}
н/о н/о +10.2 +0.5 51 +8 +8 1020.3 1018.4

 

Местоположение метеостанции Кокар Богскар (Финляндия): широта 59.51 долгота 20.36 высота над уровнем моря 4 м.

В архиве по умолчанию представлена погода в Кокар Богскар за последнюю неделю. Архивные данные за месяц целиком и за предыдущие месяцы, начиная с января 2011 года, Вы можете получить, выбрав интересующий диапазон дат из раскрывающегося списка и нажав кнопку "Ввод!".


*Определитесь, кто Вы:
робот инопланетянин человек

Внимание! Время в таблицах - всемирное. Для получения местного времени необходимо прибавить поправку, которая равна 1 ч.

Смотрите также архив погоды в соседних городах и на ближайших метеорологических станциях:

Погода в Свенска Хогарна (Швеция) (49 км)
Погода в Свенска Хогарна АМС (Швеция) (49 км)
Погода в Лемланд Нихамн (Финляндия) (55 км)
Погода в Содерарме (Швеция) (59 км)
Погода на Острове Уто (Финляндия) (64 км)
Погода в Логнес Харбор (Финляндия) (68 км)
Погода в Йомала аэропорту (Финляндия) (73 км)
Погода в Йомале (Финляндия) (77 км)
Погода в Кумлинге (Финляндия) (86 км)
Погода в Ставстане (Швеция) (97 км)

Пояснения к столбцам:

Ветер - указаны скорость ветра в м/с - средняя за 10 мин, порывы в срок и между сроками (в фигурных скобках) и направление, откуда дует ветер: С - северный, СВ - северо-восточный, В - восточный, ЮВ - юго-восточный, Ю - южный, ЮЗ - юго-западный, З - западный, СЗ - северо-западный.
Видимость - горизонтальная дальность видимости в метрах или километрах. При видимости от 1 до 10 км при отсутствии осадков обычно наблюдается дымка, при ухудшении видимости до 1 км и менее - туман. В сухую погоду видимость может ухудшаться дымом, пылью или мглою.
Явления - указаны атмосферные явления, наблюдавшиеся в срок или в последний час перед сроком; фигурными скобками обозначены явления, наблюдавшиеся между сроками (за 1-3 часа до срока); квадратными скобками обозначены град или гололедные отложения с указанием их диаметра в мм.
Облачность - указаны через наклонную черту общая и нижняя облачность в баллах и высота нижней границы облаков в метрах; квадратными скобками обозначены формы облаков: Ci - перистые, Cs - перисто-слоистые, Cc - перисто-кучевые, Ac - высококучевые, As - высокослоистые, Sc - слоисто-кучевые, Ns - слоисто-дождевые, Cu - кучевые, Cb - кучево-дождевые. Подробнее классификацию облаков см. в Атласе облаков (PDF).
T - Температура воздуха - температура, измеренная на высоте 2 м над землей.
Td - Температура точки росы - температура, при понижении до которой содержащийся в воздухе водяной пар достигнет насыщения.
f - Относительная влажность воздуха - влажноcть воздуха, измеренная на высоте 2 м над землей.
Te - Эффективная температура - температура, которую ощущает одетый по сезону человек в тени. Характеристика душности погоды. При расчете учитывается влияние влажности воздуха и скорости ветра на теплоощущения человека.
Tes - Эффективная температура на солнце - температура, которую ощущает человек, с поправкой на солнечный нагрев. Характеристика знойности погоды. Зависит от высоты солнца над горизонтом, облачности и скорости ветра. Ночью, в пасмурную погоду, а также при ветре 12 м/с и более поправка равна нулю.
P - Атмосферное давление - приведенное к уровню моря атмосферное давление.
Po - Атмосферное давление - измеренное на уровне метеостанции атмосферное давление.
Tmin - Минимальная температура - минимум температуры воздуха на высоте 2 м над землей.
Tmax - Максимальная температура - максимум температуры воздуха на высоте 2 м над землей.
R - Количество осадков - Количество выпавших осадков за период времени, мм. При наведении курсора мыши на число - период времени, за который выпало указанное количество осадков.
R24 - Количество осадков - Количество выпавших осадков за 24 часа, мм.
S - Снежный покров - Высота снежного покрова, см. При наведении курсора мыши на число - состояние снежного покрова и степень покрытия местности в баллах.